Tracking 19638 objects as of 20-May-2019
HD Live streaming from Space Station
objects crossing your sky now

TURKSAT 2A

Track TURKSAT 2A now!
TURKSAT 2A is classified as:


NORAD ID: 26666
Int'l Code: 2001-002A
Perigee: 36,330.6 km
Apogee: 36,434.5 km
Inclination: 2.7 °
Period: 1,466.3 minutes
Semi major axis: 42753 km
RCS: 3.9 m2 (large)
Launch date: January 10, 2001
Source: Turkey (TURK)
Launch site: FRENCH GUIANA (FRGUI)

32 Ku-band transponders; direct-to-home voice, video, and data transmissions to countries between central Europe and the Indian subcontinent.
aabbcc
Your satellite tracking list
Your tracking list is empty




NASA's NSSDC Master Catalog

Two Line Element Set (TLE):
1 26666U 01002A   19139.90126799 -.00000094 +00000-0 +00000-0 0  9999
2 26666 002.6974 083.4182 0012159 267.5628 321.3339 00.98207503066893
Source of the keplerian elements: AFSPC